• In Deutschland
  • Länderverzeichnis
  • Für 7 Tage
  • Wassertemperatur
  • Satellitenkarten
  • Wetterkarte
  • Widgets
  • user-avatar
    Anmelden

    Stündliche Wetter Deyang

    Heute, 23 Juli, Montag

    Zeit Temperatur Niederschläge Wind Luftdruck Luftfeuchtigkeit
    00:00 +27°C° 0,1 mm 1 m/S 711 mmHg 82%
    01:00 +27°C° 0 mm 1 m/S 711 mmHg 82%
    02:00 +27°C° 0 mm 1 m/S 711 mmHg 81%
    03:00 +27°C° 0 mm 1 m/S 711 mmHg 81%
    04:00 +26°C° 0 mm 1 m/S 710 mmHg 80%
    05:00 +27°C° 0 mm 1 m/S 710 mmHg 80%
    06:00 +28°C° 0 mm 1 m/S 711 mmHg 79%
    07:00 +29°C° 0 mm 1 m/S 710 mmHg 77%
    08:00 +30°C° 0,2 mm 1 m/S 710 mmHg 73%
    09:00 +32°C° 0,2 mm 1 m/S 710 mmHg 68%
    10:00 +33°C° 0,2 mm 1 m/S 710 mmHg 63%
    11:00 +33°C° 0,6 mm 1 m/S 710 mmHg 63%
    12:00 +34°C° 0,6 mm 1 m/S 710 mmHg 62%
    13:00 +36°C° 0 mm 2 m/S 710 mmHg 61%
    14:00 +34°C° 0,5 mm 1 m/S 710 mmHg 62%
    15:00 +34°C° 0,5 mm 1 m/S 709 mmHg 63%
    16:00 +34°C° 0,5 mm 1 m/S 709 mmHg 64%
    17:00 +33°C° 0,7 mm 1 m/S 709 mmHg 69%
    18:00 +31°C° 0,7 mm 1 m/S 709 mmHg 74%
    19:00 +30°C° 0,7 mm 1 m/S 709 mmHg 78%
    20:00 +29°C° 0,3 mm 1 m/S 710 mmHg 79%
    21:00 +29°C° 0,3 mm 1 m/S 710 mmHg 80%
    22:00 +28°C° 0,3 mm 2 m/S 711 mmHg 81%
    23:00 +28°C° 0,1 mm 2 m/S 711 mmHg 80%

    Morgen, 24 Juli, Dienstag

    Zeit Temperatur Niederschläge Wind Luftdruck Luftfeuchtigkeit
    00:00 +27°C° 0,1 mm 2 m/S 711 mmHg 80%
    01:00 +27°C° 0,1 mm 2 m/S 711 mmHg 80%
    02:00 +27°C° 0 mm 2 m/S 711 mmHg 79%
    03:00 +27°C° 0 mm 2 m/S 711 mmHg 79%
    04:00 +26°C° 0 mm 2 m/S 711 mmHg 79%
    05:00 +27°C° 0 mm 2 m/S 711 mmHg 79%
    06:00 +28°C° 0 mm 2 m/S 711 mmHg 79%
    07:00 +28°C° 0 mm 2 m/S 711 mmHg 79%
    08:00 +30°C° 0,6 mm 1 m/S 711 mmHg 74%
    09:00 +31°C° 0,6 mm 1 m/S 712 mmHg 69%
    10:00 +33°C° 0,6 mm 1 m/S 712 mmHg 64%
    11:00 +34°C° 0,3 mm 1 m/S 711 mmHg 62%
    12:00 +34°C° 0,3 mm 1 m/S 711 mmHg 60%
    13:00 +35°C° 0,3 mm 1 m/S 711 mmHg 59%
    14:00 +35°C° 0 mm 1 m/S 711 mmHg 58%
    15:00 +35°C° 0 mm 1 m/S 710 mmHg 58%
    16:00 +35°C° 0 mm 1 m/S 710 mmHg 58%
    17:00 +33°C° 0 mm 1 m/S 710 mmHg 63%
    18:00 +32°C° 0 mm 1 m/S 710 mmHg 68%
    19:00 +31°C° 0 mm 1 m/S 710 mmHg 73%
    20:00 +30°C° 0 mm 1 m/S 710 mmHg 73%
    21:00 +29°C° 0 mm 1 m/S 711 mmHg 74%
    22:00 +29°C° 0 mm 1 m/S 712 mmHg 74%
    23:00 +28°C° 0 mm 1 m/S 711 mmHg 75%

    übermorgen, 25 Juli, Mittwoch

    Zeit Temperatur Niederschläge Wind Luftdruck Luftfeuchtigkeit
    00:00 +28°C° 0 mm 1 m/S 711 mmHg 75%
    01:00 +28°C° 0 mm 1 m/S 711 mmHg 75%
    02:00 +27°C° 0 mm 1 m/S 711 mmHg 76%
    03:00 +27°C° 0 mm 1 m/S 711 mmHg 76%
    04:00 +27°C° 0 mm 1 m/S 710 mmHg 76%
    05:00 +27°C° 0 mm 1 m/S 711 mmHg 76%
    06:00 +28°C° 0 mm 1 m/S 711 mmHg 76%
    07:00 +29°C° 0 mm 1 m/S 711 mmHg 76%
    08:00 +30°C° 0 mm 1 m/S 711 mmHg 72%
    09:00 +32°C° 0 mm 1 m/S 711 mmHg 68%
    10:00 +33°C° 0 mm 1 m/S 711 mmHg 64%
    11:00 +34°C° 0,1 mm 1 m/S 711 mmHg 63%
    12:00 +34°C° 0,1 mm 1 m/S 711 mmHg 62%
    13:00 +36°C° 0,1 mm 2 m/S 710 mmHg 60%
    14:00 +35°C° 0,9 mm 2 m/S 710 mmHg 62%
    15:00 +35°C° 0,9 mm 2 m/S 710 mmHg 64%
    16:00 +35°C° 0,9 mm 2 m/S 709 mmHg 67%
    17:00 +32°C° 1,3 mm 2 m/S 710 mmHg 72%
    18:00 +31°C° 1,3 mm 1 m/S 710 mmHg 78%
    19:00 +30°C° 1,3 mm 1 m/S 710 mmHg 84%
    20:00 +29°C° 0,7 mm 1 m/S 711 mmHg 85%
    21:00 +29°C° 0,7 mm 1 m/S 711 mmHg 86%
    22:00 +28°C° 0,7 mm 1 m/S 711 mmHg 87%
    23:00 +28°C° 0 mm 1 m/S 711 mmHg 87%

    26 Juli, Donnerstag

    Zeit Temperatur Niederschläge Wind Luftdruck Luftfeuchtigkeit
    00:00 +27°C° 0 mm 1 m/S 711 mmHg 87%
    01:00 +27°C° 0 mm 1 m/S 710 mmHg 87%
    02:00 +27°C° 0 mm 1 m/S 710 mmHg 87%
    03:00 +27°C° 0 mm 1 m/S 710 mmHg 87%
    04:00 +24°C° 0 mm 0 m/S 710 mmHg 87%
    05:00 +27°C° 0,1 mm 1 m/S 710 mmHg 85%
    06:00 +28°C° 0,1 mm 1 m/S 711 mmHg 83%
    07:00 +29°C° 0,1 mm 1 m/S 711 mmHg 82%
    08:00 +30°C° 0,5 mm 1 m/S 711 mmHg 77%
    09:00 +31°C° 0,5 mm 1 m/S 711 mmHg 73%
    10:00 +32°C° 0,5 mm 1 m/S 711 mmHg 69%
    11:00 +32°C° 1,6 mm 1 m/S 710 mmHg 69%
    12:00 +34°C° 1,6 mm 2 m/S 710 mmHg 70%
    13:00 +34°C° 1,6 mm 2 m/S 710 mmHg 70%
    14:00 +32°C° 1,5 mm 2 m/S 709 mmHg 72%
    15:00 +32°C° 1,5 mm 2 m/S 709 mmHg 75%
    16:00 +32°C° 1,5 mm 2 m/S 709 mmHg 77%
    17:00 +31°C° 1,6 mm 2 m/S 709 mmHg 81%
    18:00 +30°C° 1,6 mm 2 m/S 709 mmHg 85%
    19:00 +28°C° 1,6 mm 2 m/S 709 mmHg 89%
    20:00 +28°C° 1,7 mm 2 m/S 710 mmHg 89%
    21:00 +28°C° 1,7 mm 2 m/S 710 mmHg 89%
    22:00 +27°C° 1,7 mm 2 m/S 711 mmHg 89%
    23:00 +27°C° 1,4 mm 2 m/S 710 mmHg 90%

    27 Juli, Freitag

    Zeit Temperatur Niederschläge Wind Luftdruck Luftfeuchtigkeit
    00:00 +27°C° 1,4 mm 2 m/S 710 mmHg 90%
    01:00 +27°C° 1,4 mm 2 m/S 709 mmHg 91%
    02:00 +26°C° 2,2 mm 2 m/S 709 mmHg 92%
    03:00 +26°C° 2,2 mm 2 m/S 709 mmHg 93%
    04:00 +26°C° 2,2 mm 2 m/S 709 mmHg 93%
    05:00 +26°C° 1,2 mm 2 m/S 709 mmHg 93%
    06:00 +27°C° 1,2 mm 2 m/S 710 mmHg 93%
    07:00 +27°C° 1,2 mm 2 m/S 710 mmHg 92%
    08:00 +28°C° 0,1 mm 2 m/S 710 mmHg 88%
    09:00 +29°C° 0,1 mm 2 m/S 710 mmHg 85%
    10:00 +31°C° 0,1 mm 2 m/S 711 mmHg 81%
    11:00 +31°C° 1,1 mm 2 m/S 710 mmHg 79%
    12:00 +32°C° 1,1 mm 2 m/S 710 mmHg 76%
    13:00 +32°C° 1,1 mm 2 m/S 709 mmHg 74%
    14:00 +32°C° 1,8 mm 2 m/S 709 mmHg 76%
    15:00 +32°C° 1,8 mm 2 m/S 709 mmHg 77%
    16:00 +32°C° 1,8 mm 2 m/S 708 mmHg 78%
    17:00 +31°C° 2 mm 2 m/S 709 mmHg 82%
    18:00 +30°C° 2 mm 2 m/S 709 mmHg 85%
    19:00 +29°C° 2 mm 2 m/S 709 mmHg 89%
    20:00 +29°C° 1,4 mm 2 m/S 710 mmHg 88%
    21:00 +28°C° 1,4 mm 2 m/S 710 mmHg 88%
    22:00 +28°C° 1,4 mm 2 m/S 711 mmHg 87%
    23:00 +28°C° 1 mm 2 m/S 711 mmHg 88%

    28 Juli, Samstag

    Zeit Temperatur Niederschläge Wind Luftdruck Luftfeuchtigkeit
    00:00 +27°C° 1 mm 2 m/S 710 mmHg 88%
    01:00 +27°C° 1 mm 2 m/S 710 mmHg 89%
    02:00 +27°C° 1 mm 2 m/S 710 mmHg 90%
    03:00 +27°C° 1 mm 2 m/S 710 mmHg 90%
    04:00 +26°C° 1 mm 2 m/S 709 mmHg 91%
    05:00 +27°C° 1 mm 2 m/S 710 mmHg 90%
    06:00 +27°C° 1 mm 2 m/S 710 mmHg 90%
    07:00 +27°C° 1 mm 2 m/S 710 mmHg 90%
    08:00 +29°C° 1,4 mm 2 m/S 710 mmHg 86%
    09:00 +30°C° 1,4 mm 2 m/S 710 mmHg 82%
    10:00 +31°C° 1,4 mm 2 m/S 710 mmHg 79%
    11:00 +31°C° 1,6 mm 2 m/S 710 mmHg 77%
    12:00 +32°C° 1,6 mm 2 m/S 710 mmHg 75%
    13:00 +32°C° 1,6 mm 2 m/S 709 mmHg 73%
    14:00 +34°C° 0,3 mm 2 m/S 709 mmHg 73%
    15:00 +34°C° 0,3 mm 2 m/S 709 mmHg 72%
    16:00 +34°C° 0,3 mm 2 m/S 709 mmHg 71%
    17:00 +32°C° 1,6 mm 2 m/S 709 mmHg 77%
    18:00 +30°C° 1,6 mm 2 m/S 709 mmHg 82%
    19:00 +29°C° 1,6 mm 2 m/S 709 mmHg 87%
    20:00 +28°C° 1,4 mm 2 m/S 710 mmHg 88%
    21:00 +28°C° 1,4 mm 2 m/S 711 mmHg 88%
    22:00 +27°C° 1,4 mm 2 m/S 711 mmHg 89%
    23:00 +27°C° 0,6 mm 2 m/S 711 mmHg 89%
    Mehr zeigen